[[{"header":{"parameterUnit":"m.s-1","parameterCategory":1,"la1":30.2991,"la2":30.254,"lo1":-89.0895,"lo2":-89.0444,"dy":0.0017,"dx":0.0017,"nx":28,"ny":28,"refTime":"2023-11-20T09:00:00:Z","depth":0,"parameterNumber":2,"parameterNumberName":"U-component_of_WINDS"},"data":[0,0,0,0,0,0,0,0,0,0,0,0,0,0,0,0,0,0,0,0,0,0,0,0,0,0,0,0,0,0,0,0,0,0,0,0,0,0,0,0,0,0,0,0,0,0,0,0,0,0,0,0,0,0,0,0,0,0,-4.4982,-4.4982,0,-4.4985,-4.4985,-4.4985,-4.4881,-4.4878,-4.4875,-4.4873,-4.4876,-4.4878,-4.4881,0,0,0,0,0,0,0,0,0,0,0,0,0,-4.4886,-4.4888,-4.4982,-4.4982,-4.4982,-4.4985,-4.4985,-4.4985,-4.4881,-4.4878,-4.4875,-4.4871,-4.4875,-4.4878,-4.4881,0,0,0,0,0,0,0,0,0,0,0,0,0,-4.4912,-4.4889,-4.4982,-4.4931,-4.4926,-4.4985,-4.4985,-4.4985,-4.4882,-4.4878,-4.4874,-4.487,-4.4874,-4.4878,-4.4882,-4.4989,0,0,-4.4894,-4.4895,0,0,0,0,0,0,0,0,-4.4911,-4.4916,-4.4938,-4.4934,-4.4929,-4.4928,-4.4952,-4.4986,-4.4883,-4.4899,-4.4873,-4.4868,-4.4896,-4.4898,-4.4908,-4.4989,-4.4989,-4.4894,-4.4896,-4.4898,-4.4899,0,0,0,0,0,0,0,-4.4909,-4.4915,-4.4983,-4.4939,-4.4933,-4.4907,-4.4906,-4.4958,-4.4921,-4.4897,-4.489,-4.4891,-4.4893,-4.4904,-4.4907,-4.4989,-4.4894,-4.4897,-4.49,-4.4902,-4.5156,-4.5161,0,0,0,0,0,0,-4.4915,-4.4914,-4.4983,-4.4983,-4.491,-4.4912,-4.4911,-4.4933,-4.492,-4.4914,-4.4895,-4.4886,-4.49,-4.4903,-4.4907,-4.5029,-4.4898,-4.4902,-4.4904,-4.5152,-4.5157,-4.5162,0,0,0,0,0,0,-4.4913,-4.4922,-4.4983,-4.4947,-4.4952,-4.4918,-4.4943,-4.4935,-4.4946,-4.4918,-4.4911,-4.4913,-4.4896,-4.4901,-4.4969,-4.5028,-4.4904,-4.4907,-4.5147,-4.5154,-4.516,-4.5277,0,0,0,0,0,0,-4.4911,-4.4922,-4.4962,-4.4948,-4.4955,-4.5045,-4.4947,-4.4938,-4.4953,-4.4942,-4.4933,-4.4928,-4.4894,-4.4963,-4.4973,-4.5031,-4.491,-4.5141,-4.515,-4.5158,-4.5268,-4.5287,-4.5303,0,0,0,0,0,-4.4908,-4.4996,-4.4965,-4.4974,-4.5005,-4.5049,-4.5052,-4.5011,-4.4958,-4.4998,-4.498,-4.4928,-4.5021,-4.4971,-4.4981,-4.5042,-4.5137,-4.5147,-4.5157,-4.526,-4.5283,-4.5303,0,0,0,0,0,0,-4.5018,-4.4993,-4.4959,-4.5045,-4.505,-4.5031,-4.508,-4.5037,-4.5057,-4.5046,-4.4994,-4.4993,-4.5068,-4.5062,-4.5007,-4.5144,-4.507,-4.5082,-4.5144,-4.5166,-4.5184,-4.5182,-4.4914,0,0,0,0,0,-4.5053,-4.5091,-4.5067,-4.5146,-4.515,-4.5115,-4.5133,-4.51,-4.5103,-4.5104,-4.5091,-4.5096,-4.5125,-4.5146,-4.5172,-4.5267,-4.5262,-4.5314,-4.5332,-4.5346,-4.5357,-4.5404,-4.5425,-4.5194,-4.5194,-4.5194,0,0,-4.5125,-4.5116,-4.5143,-4.5168,-4.5167,-4.5206,-4.5117,-4.5163,-4.5191,-4.5111,-4.5173,-4.5164,-4.5166,-4.5247,-4.5282,-4.5244,-4.542,-4.5359,-4.5371,-4.5373,-4.5416,-4.5438,-4.5457,-4.5201,-4.52,-4.5199,0,0,-4.5274,-4.5273,-4.5336,-4.5338,-4.5338,-4.5315,-4.533,-4.5318,-4.5308,-4.537,-4.531,-4.5343,-4.5396,-4.5399,-4.5407,-4.5558,-4.5509,-4.5568,-4.566,-4.5706,-4.5724,-4.574,-4.5791,-4.581,-4.5579,-4.5579,-4.558,0,-4.5363,-4.542,-4.5375,-4.5424,-4.5436,-4.5365,-4.5428,-4.5432,-4.5442,-4.5451,-4.5409,-4.5472,-4.5469,-4.5548,-4.5585,-4.5595,-4.561,-4.5567,-4.5726,-4.5741,-4.5755,-4.5803,-4.5822,-4.5586,-4.5585,-4.5585,-4.5584,0,-4.5527,-4.5568,-4.562,-4.5629,-4.5647,-4.5704,-4.5666,-4.569,-4.5657,-4.5637,-4.57,-4.5693,-4.5715,-4.5733,-4.5701,-4.5807,-4.5783,-4.5735,-4.5658,-4.5785,-4.5828,-4.5846,-4.5596,-4.5594,-4.5592,-4.559,0,0,-4.5746,-4.5729,-4.5748,-4.5751,-4.5746,-4.5776,-4.5829,-4.585,-4.587,-4.588,-4.5921,-4.5968,-4.5922,-4.5932,-4.59,-4.5941,-4.6057,-4.5887,-4.5886,-4.5916,-4.6171,-4.6205,-4.6227,-4.6026,-4.603,-4.6033,-4.6169,0,-4.5888,-4.5976,-4.5937,-4.6029,-4.6064,-4.5998,-4.6043,-4.6045,-4.6029,-4.6056,-4.6039,-4.6071,-4.601,-4.6015,-4.6053,-4.6035,-4.6107,-4.6025,-4.6063,-4.6064,-4.6061,-4.625,-4.6287,-4.6416,-4.6187,-4.6189,-4.6192,0,-4.6066,-4.6081,-4.6176,-4.6163,-4.6176,-4.6218,-4.6233,-4.6261,-4.6261,-4.6246,-4.6257,-4.6215,-4.6265,-4.6193,-4.626,-4.6205,-4.6218,-4.6212,-4.6216,-4.6215,-4.6133,-4.6251,-4.6456,-4.6474,-4.6219,-4.6217,-4.6215,0,-4.6211,-4.6256,-4.6317,-4.6322,-4.6309,-4.6339,-4.6336,-4.6332,-4.6347,-4.6361,-4.6369,-4.639,-4.64,-4.6417,-4.6381,-4.6332,-4.6453,-4.6377,-4.644,-4.6441,-4.6465,-4.6463,-4.6672,-4.6481,-4.648,-4.648,-4.6479,0,-4.6372,-4.6432,-4.6382,-4.642,-4.6485,-4.6439,-4.6505,-4.6494,-4.6491,-4.6525,-4.647,-4.6503,-4.6456,-4.6485,-4.6458,-4.6516,-4.6522,-4.651,-4.6501,-4.6513,-4.6514,-4.6518,-4.6507,-4.6485,-4.6484,-4.6483,-4.6482,0,-4.6544,-4.6513,-4.6575,-4.6558,-4.6555,-4.6603,-4.6588,-4.6622,-4.6602,-4.6645,-4.6653,-4.6622,-4.6652,-4.6619,-4.6648,-4.663,-4.6707,-4.6687,-4.6706,-4.6699,-4.6762,-4.6755,-4.6978,-4.7004,-4.68,-4.6802,-4.6803,0,-4.6646,-4.6691,-4.6678,-4.6696,-4.6695,-4.6726,-4.674,-4.6698,-4.6715,-4.6718,-4.6751,-4.6777,-4.6795,-4.6847,-4.6827,-4.6848,-4.6826,-4.6903,-4.6828,-4.6838,-4.6822,-4.6819,-4.6821,-4.6916,-4.6919,-4.6921,-4.6923,0,-4.6831,-4.6813,-4.6836,-4.6853,-4.6871,-4.6883,-4.6891,-4.6909,-4.6865,-4.6887,-4.6917,-4.6931,-4.6959,-4.6985,-4.7,-4.6996,-4.6951,-4.6947,-4.6961,-4.6971,-4.6979,-4.6972,-4.6743,-4.6941,-4.6939,-4.6938,-4.6937,-4.6936,-4.6969,-4.7004,-4.6999,-4.7026,-4.7027,-4.7035,-4.7065,-4.7049,-4.7073,-4.7091,-4.7066,-4.7102,-4.7101,-4.7116,-4.7117,-4.7145,-4.7112,-4.7135,-4.7139,-4.7145,-4.7152,-4.6978,-4.7148,-4.7148,-4.7147,-4.7147,-4.7146,0,-4.7147,-4.7141,-4.7166,-4.7177,-4.7198,-4.7155,-4.7161,-4.7181,-4.7213,-4.7215,-4.7234,-4.7267,-4.7292,-4.7274,-4.7294,-4.732,-4.73,-4.7326,-4.7322,-4.7321,-4.7182,-4.7166,-4.7342,-4.7342,-4.7342,-4.7342,-4.7342,-4.7342,-4.7242,-4.7298,-4.728,-4.7336,-4.7329,-4.7363,-4.737,-4.7377,-4.7378,-4.7417,-4.7437,-4.7425,-4.7419,-4.7438,-4.7458,-4.7452,-4.7461,-4.7494,-4.748,-4.735,-4.7331,-4.7313,-4.7296,-4.7497,-4.7497,-4.7616,-4.7617,-4.7618]},{"header":{"parameterUnit":"m.s-1","parameterCategory":1,"la1":30.2991,"la2":30.254,"lo1":-89.0895,"lo2":-89.0444,"dy":0.0017,"dx":0.0017,"nx":28,"ny":28,"refTime":"2023-11-20T09:00:00:Z","depth":0,"parameterNumber":3,"parameterNumberName":"V-component_of_WINDS"},"data":[0,0,0,0,0,0,0,0,0,0,0,0,0,0,0,0,0,0,0,0,0,0,0,0,0,0,0,0,0,0,0,0,0,0,0,0,0,0,0,0,0,0,0,0,0,0,0,0,0,0,0,0,0,0,0,0,0,0,-0.5566,-0.5565,0,-0.5425,-0.5423,-0.5421,-0.5403,-0.5404,-0.5405,-0.5407,-0.5254,-0.5249,-0.5244,0,0,0,0,0,0,0,0,0,0,0,0,0,-0.5809,-0.5805,-0.5566,-0.5564,-0.5563,-0.5425,-0.5423,-0.5421,-0.5402,-0.5404,-0.5406,-0.5407,-0.5256,-0.525,-0.5243,0,0,0,0,0,0,0,0,0,0,0,0,0,-0.5689,-0.5803,-0.5567,-0.5537,-0.5533,-0.5425,-0.5423,-0.5421,-0.5402,-0.5404,-0.5406,-0.5408,-0.5258,-0.525,-0.5243,-0.5152,0,0,-0.5218,-0.5215,0,0,0,0,0,0,0,0,-0.5696,-0.568,-0.5543,-0.5539,-0.5534,-0.5434,-0.5453,-0.533,-0.5402,-0.5452,-0.5407,-0.5409,-0.5312,-0.53,-0.5268,-0.5145,-0.5139,-0.5217,-0.5213,-0.5209,-0.5207,0,0,0,0,0,0,0,-0.5704,-0.5686,-0.551,-0.5541,-0.5536,-0.5527,-0.5512,-0.5429,-0.5372,-0.5447,-0.5446,-0.543,-0.531,-0.5276,-0.5265,-0.5136,-0.5218,-0.5211,-0.5206,-0.5203,-0.4924,-0.4922,0,0,0,0,0,0,-0.5719,-0.5693,-0.5514,-0.5506,-0.5622,-0.5521,-0.5505,-0.5464,-0.5373,-0.5361,-0.5428,-0.5429,-0.5289,-0.5274,-0.5259,-0.5142,-0.5209,-0.5202,-0.5197,-0.4927,-0.4923,-0.4921,0,0,0,0,0,0,-0.5725,-0.5704,-0.552,-0.5599,-0.5575,-0.5515,-0.5469,-0.546,-0.5426,-0.5358,-0.5347,-0.5405,-0.529,-0.527,-0.5178,-0.5137,-0.5198,-0.5191,-0.493,-0.4926,-0.4922,-0.4911,0,0,0,0,0,0,-0.5732,-0.5706,-0.5674,-0.5598,-0.5571,-0.5445,-0.5467,-0.5456,-0.5413,-0.5414,-0.5333,-0.5322,-0.529,-0.519,-0.517,-0.5127,-0.5185,-0.4933,-0.4928,-0.4923,-0.4915,-0.4907,-0.4901,0,0,0,0,0,-0.574,-0.5676,-0.5672,-0.5651,-0.553,-0.5443,-0.5426,-0.5393,-0.5411,-0.5375,-0.533,-0.5325,-0.5145,-0.5181,-0.5158,-0.5112,-0.4935,-0.4929,-0.4924,-0.4918,-0.4909,-0.4901,0,0,0,0,0,0,-0.5747,-0.5666,-0.5661,-0.5571,-0.5514,-0.544,-0.5395,-0.5385,-0.532,-0.5323,-0.5282,-0.5264,-0.5171,-0.5133,-0.5174,-0.5016,-0.5041,-0.5031,-0.5045,-0.5035,-0.5029,-0.5038,-0.5178,0,0,0,0,0,-0.5738,-0.5677,-0.5608,-0.5535,-0.5507,-0.5456,-0.5416,-0.5395,-0.5333,-0.5309,-0.5257,-0.5195,-0.5124,-0.5078,-0.5009,-0.491,-0.4888,-0.4866,-0.4859,-0.4854,-0.4844,-0.4781,-0.4769,-0.4901,-0.4901,-0.4902,0,0,-0.5719,-0.5667,-0.5631,-0.5535,-0.5489,-0.5421,-0.5436,-0.5366,-0.5314,-0.5297,-0.5206,-0.5166,-0.5093,-0.4995,-0.4949,-0.4959,-0.4803,-0.4847,-0.4843,-0.4835,-0.4774,-0.4761,-0.475,-0.4897,-0.4898,-0.4899,0,0,-0.5648,-0.5606,-0.5537,-0.549,-0.5419,-0.5385,-0.5368,-0.5294,-0.5267,-0.5175,-0.5159,-0.5096,-0.4976,-0.4923,-0.488,-0.4784,-0.4774,-0.4763,-0.4725,-0.4665,-0.4654,-0.4645,-0.4605,-0.4592,-0.4754,-0.4754,-0.4754,0,-0.5633,-0.5534,-0.5503,-0.5432,-0.5387,-0.5371,-0.5297,-0.5252,-0.5162,-0.5129,-0.5144,-0.4989,-0.4939,-0.4825,-0.4801,-0.4769,-0.4744,-0.4771,-0.4659,-0.4649,-0.464,-0.4601,-0.4586,-0.4753,-0.4753,-0.4753,-0.4753,0,-0.5515,-0.5447,-0.5399,-0.5313,-0.5263,-0.5192,-0.5145,-0.5098,-0.508,-0.5043,-0.4946,-0.4885,-0.4801,-0.4773,-0.4755,-0.4654,-0.4662,-0.4668,-0.4692,-0.4626,-0.4589,-0.4574,-0.4751,-0.4752,-0.4752,-0.4752,0,0,-0.5446,-0.534,-0.5323,-0.5281,-0.52,-0.5144,-0.5069,-0.4988,-0.4946,-0.4883,-0.4815,-0.4712,-0.4715,-0.4667,-0.4642,-0.459,-0.451,-0.4601,-0.4599,-0.4582,-0.4387,-0.438,-0.4364,-0.4504,-0.4501,-0.4499,-0.4391,0,-0.5362,-0.5231,-0.5198,-0.5084,-0.5017,-0.4997,-0.4931,-0.4871,-0.4833,-0.4767,-0.4724,-0.465,-0.4663,-0.4633,-0.458,-0.4531,-0.4469,-0.4539,-0.4435,-0.4431,-0.4449,-0.4345,-0.4338,-0.424,-0.4377,-0.4375,-0.4373,0,-0.5248,-0.5182,-0.5062,-0.4984,-0.4954,-0.4896,-0.4816,-0.4755,-0.4684,-0.466,-0.4603,-0.4583,-0.4498,-0.4529,-0.4408,-0.4456,-0.4411,-0.438,-0.4375,-0.4361,-0.4395,-0.4323,-0.4208,-0.4192,-0.4351,-0.4352,-0.4354,0,-0.5202,-0.5084,-0.4995,-0.496,-0.4869,-0.4827,-0.4786,-0.4718,-0.467,-0.4599,-0.4565,-0.4485,-0.444,-0.4376,-0.4332,-0.4359,-0.4213,-0.4241,-0.4185,-0.4185,-0.4152,-0.4154,-0.4024,-0.4131,-0.4132,-0.4132,-0.4132,0,-0.511,-0.5036,-0.4973,-0.4918,-0.4832,-0.4793,-0.4707,-0.4665,-0.4604,-0.4536,-0.4515,-0.4451,-0.44,-0.4327,-0.4292,-0.4193,-0.4175,-0.4148,-0.4139,-0.4148,-0.415,-0.4115,-0.4118,-0.4128,-0.4129,-0.413,-0.413,0,-0.5044,-0.5,-0.4901,-0.4821,-0.4799,-0.4739,-0.4668,-0.4611,-0.4572,-0.4486,-0.4464,-0.44,-0.4314,-0.4264,-0.4155,-0.4131,-0.402,-0.4016,-0.4044,-0.4039,-0.3983,-0.3987,-0.3822,-0.3795,-0.3925,-0.3924,-0.3923,0,-0.4986,-0.4928,-0.4842,-0.4796,-0.4755,-0.4682,-0.4632,-0.4589,-0.4537,-0.4449,-0.4401,-0.4314,-0.4241,-0.4102,-0.4043,-0.3958,-0.3949,-0.3897,-0.3936,-0.3944,-0.3941,-0.3943,-0.3934,-0.3889,-0.3888,-0.3887,-0.3886,0,-0.4886,-0.4866,-0.4796,-0.4717,-0.4657,-0.4593,-0.4528,-0.449,-0.4436,-0.4378,-0.4289,-0.4233,-0.412,-0.4031,-0.394,-0.3893,-0.3877,-0.3875,-0.3856,-0.3862,-0.3878,-0.3862,-0.402,-0.3878,-0.3879,-0.3879,-0.388,-0.388,-0.4819,-0.4764,-0.4693,-0.4614,-0.4561,-0.4499,-0.444,-0.4393,-0.4319,-0.4225,-0.4204,-0.4109,-0.4033,-0.3909,-0.386,-0.3781,-0.379,-0.3765,-0.3757,-0.375,-0.3745,-0.3894,-0.3765,-0.3766,-0.3766,-0.3766,-0.3766,0,-0.4712,-0.4666,-0.4593,-0.4503,-0.4439,-0.4434,-0.436,-0.4305,-0.4223,-0.4155,-0.4083,-0.3978,-0.389,-0.3823,-0.3732,-0.3681,-0.3671,-0.3658,-0.3659,-0.3647,-0.3746,-0.3769,-0.3667,-0.3667,-0.3667,-0.3667,-0.3667,-0.3667,-0.465,-0.4555,-0.4525,-0.4401,-0.4354,-0.4262,-0.4219,-0.416,-0.4105,-0.3989,-0.3916,-0.3874,-0.3805,-0.3707,-0.3624,-0.3606,-0.3571,-0.3557,-0.3538,-0.3631,-0.3641,-0.3651,-0.3672,-0.3552,-0.3551,-0.3444,-0.3443,-0.3443]}]]